Time,TemperatureF,DewpointF,PressureIn,WindDirection,WindDirectionDegrees,WindSpeedMPH,WindSpeedGustMPH,Humidity,HourlyPrecipIn,Conditions,Clouds,dailyrainin,SoftwareType,DateUTC
2017-12-11 00:12:00,27.0,21.0,29.94,West,273,3.0,13.0,79,0.00,,,0.00,weatherlink.com 1.10,2017-12-11 05:12:00,
2017-12-11 00:27:00,27.1,21.0,29.94,WSW,240,8.0,13.0,79,0.00,,,0.00,weatherlink.com 1.10,2017-12-11 05:27:00,
2017-12-11 00:43:00,27.0,22.0,29.94,WSW,244,4.0,10.0,80,0.00,,,0.00,weatherlink.com 1.10,2017-12-11 05:43:00,
2017-12-11 00:57:00,26.8,22.0,29.94,WSW,252,3.0,9.0,81,0.00,,,0.00,weatherlink.com 1.10,2017-12-11 05:57:00,
2017-12-11 01:27:00,26.8,22.0,29.94,SSW,209,3.0,10.0,81,0.00,,,0.00,weatherlink.com 1.10,2017-12-11 06:27:00,
2017-12-11 01:42:00,26.9,22.0,29.94,SSW,209,1.0,10.0,81,0.00,,,0.00,weatherlink.com 1.10,2017-12-11 06:42:00,
2017-12-11 01:57:00,26.7,22.0,29.94,WSW,245,5.0,9.0,81,0.00,,,0.00,weatherlink.com 1.10,2017-12-11 06:57:00,
2017-12-11 02:12:00,26.8,22.0,29.94,SW,227,4.0,8.0,81,0.00,,,0.00,weatherlink.com 1.10,2017-12-11 07:12:00,
2017-12-11 02:27:00,26.9,22.0,29.94,SW,225,6.0,12.0,80,0.00,,,0.00,weatherlink.com 1.10,2017-12-11 07:27:00,
2017-12-11 02:42:00,26.7,21.0,29.93,SW,227,0.0,10.0,80,0.00,,,0.00,weatherlink.com 1.10,2017-12-11 07:42:00,
2017-12-11 02:58:00,26.5,21.0,29.93,SSW,196,1.0,6.0,80,0.00,,,0.00,weatherlink.com 1.10,2017-12-11 07:58:00,
2017-12-11 03:12:00,26.4,21.0,29.93,WSW,242,0.0,9.0,81,0.00,,,0.00,weatherlink.com 1.10,2017-12-11 08:12:00,
2017-12-11 03:27:00,26.3,21.0,29.93,WSW,239,0.0,6.0,81,0.00,,,0.00,weatherlink.com 1.10,2017-12-11 08:27:00,
2017-12-11 04:12:00,26.3,21.0,29.93,SW,230,11.0,12.0,80,0.00,,,0.00,weatherlink.com 1.10,2017-12-11 09:12:00,
2017-12-11 05:13:00,26.4,20.0,29.94,SW,221,2.0,10.0,78,0.00,,,0.00,weatherlink.com 1.10,2017-12-11 10:13:00,
2017-12-11 05:28:00,26.4,20.0,29.94,ENE,72,3.0,11.0,78,0.00,,,0.00,weatherlink.com 1.10,2017-12-11 10:28:00,
2017-12-11 05:43:00,26.5,20.0,29.95,WSW,247,3.0,11.0,77,0.00,,,0.00,weatherlink.com 1.10,2017-12-11 10:43:00,
2017-12-11 05:58:00,26.5,20.0,29.95,SW,230,7.0,10.0,77,0.00,,,0.00,weatherlink.com 1.10,2017-12-11 10:58:00,
2017-12-11 06:13:00,26.4,20.0,29.96,WSW,240,3.0,13.0,78,0.00,,,0.00,weatherlink.com 1.10,2017-12-11 11:13:00,
2017-12-11 06:28:00,26.3,20.0,29.95,SW,225,2.0,10.0,78,0.00,,,0.00,weatherlink.com 1.10,2017-12-11 11:28:00,
2017-12-11 06:43:00,26.4,20.0,29.95,SW,225,6.0,13.0,77,0.00,,,0.00,weatherlink.com 1.10,2017-12-11 11:43:00,
2017-12-11 06:58:00,26.4,20.0,29.96,West,275,5.0,10.0,77,0.00,,,0.00,weatherlink.com 1.10,2017-12-11 11:58:00,
2017-12-11 07:14:00,26.2,20.0,29.96,West,280,2.0,8.0,78,0.00,,,0.00,weatherlink.com 1.10,2017-12-11 12:14:00,
2017-12-11 07:28:00,26.0,20.0,29.96,SW,230,5.0,8.0,78,0.00,,,0.00,weatherlink.com 1.10,2017-12-11 12:28:00,
2017-12-11 07:43:00,26.1,20.0,29.96,West,279,0.0,12.0,78,0.00,,,0.00,weatherlink.com 1.10,2017-12-11 12:43:00,
2017-12-11 08:13:00,26.5,21.0,29.97,WSW,249,2.0,15.0,78,0.00,,,0.00,weatherlink.com 1.10,2017-12-11 13:13:00,